User: anonymous   Login
Location: Columbia
(38.9520°N, 92.3340°W)
Time: 01:30:11
(UTC-05:00)
Language:

SJ-11-01 - Orbit

View from above orbital plane
View from above orbital plane
View from above satellite
View from above satellite

Ground track
Ground track

The orbit data is extracted from the following two-line orbital elements,

1 36088U 09061A   16177.71904765  .00000105  00000-0  31728-4 0  9993
2 36088  98.1875 225.0423 0010434 304.0222  55.9976 14.59847061352633
Epoch (UTC): 25 June 2016 17:15:25
Eccentricity: 0.0010434
inclination: 98.1875°
perigee height: 686 km
apogee height: 701 km
right ascension of ascending node: 225.0423°
argument of perigee: 304.0222°
revolutions per day: 14.59847061
mean anomaly at epoch: 55.9976°
orbit number at epoch: 35263

The dashed part of the orbit path shows where the satellite is in the earth's shadow,  

DLR